TimeEDT,TemperatureF,Dew PointF,Humidity,Sea Level PressureIn,VisibilityMPH,Wind Direction,Wind SpeedMPH,Gust SpeedMPH,PrecipitationIn,Events,Conditions,WindDirDegrees,DateUTC
12:15 AM,42.8,30.2,61,29.47,10.0,West,15.0,19.6,N/A,,Overcast,260,2011-10-17 04:15:00
12:35 AM,42.8,28.4,57,29.46,10.0,WSW,9.2,-,N/A,,Overcast,250,2011-10-17 04:35:00
12:55 AM,42.8,28.4,57,29.45,10.0,WSW,9.2,18.4,N/A,,Scattered Clouds,240,2011-10-17 04:55:00
1:35 AM,42.8,26.6,53,29.44,10.0,WSW,12.7,20.7,N/A,,Mostly Cloudy,250,2011-10-17 05:35:00
2:15 AM,42.8,24.8,49,29.43,10.0,WSW,15.0,20.7,N/A,,Overcast,250,2011-10-17 06:15:00
2:35 AM,42.8,24.8,49,29.43,10.0,West,12.7,21.9,N/A,,Overcast,260,2011-10-17 06:35:00
2:55 AM,42.8,26.6,53,29.43,10.0,West,13.8,20.7,N/A,,Overcast,260,2011-10-17 06:55:00
3:15 AM,42.8,26.6,53,29.43,10.0,West,12.7,20.7,N/A,,Overcast,260,2011-10-17 07:15:00
3:35 AM,42.8,26.6,53,29.42,10.0,West,16.1,21.9,N/A,,Overcast,260,2011-10-17 07:35:00
3:55 AM,42.8,26.6,53,29.42,10.0,West,13.8,20.7,N/A,,Overcast,260,2011-10-17 07:55:00
4:15 AM,42.8,26.6,53,29.42,10.0,West,17.3,26.5,N/A,,Overcast,260,2011-10-17 08:15:00
4:35 AM,42.8,26.6,53,29.42,10.0,West,16.1,28.8,N/A,,Overcast,260,2011-10-17 08:35:00
4:55 AM,42.8,28.4,57,29.42,10.0,West,17.3,26.5,N/A,,Overcast,260,2011-10-17 08:55:00
5:15 AM,42.8,28.4,57,29.42,10.0,West,12.7,20.7,N/A,,Overcast,260,2011-10-17 09:15:00
5:35 AM,42.8,28.4,57,29.42,10.0,WSW,15.0,19.6,N/A,,Mostly Cloudy,250,2011-10-17 09:35:00
5:55 AM,42.8,28.4,57,29.42,10.0,West,15.0,23.0,N/A,,Overcast,260,2011-10-17 09:55:00
6:15 AM,42.8,28.4,57,29.42,10.0,WSW,15.0,23.0,N/A,,Overcast,250,2011-10-17 10:15:00
6:35 AM,42.8,30.2,61,29.42,10.0,West,15.0,24.2,N/A,,Mostly Cloudy,260,2011-10-17 10:35:00
6:55 AM,42.8,30.2,61,29.42,10.0,West,11.5,20.7,N/A,,Overcast,260,2011-10-17 10:55:00
7:15 AM,42.8,30.2,61,29.42,10.0,West,11.5,17.3,N/A,,Overcast,260,2011-10-17 11:15:00
7:35 AM,41.0,32.0,70,29.42,10.0,West,13.8,25.3,N/A,,Overcast,260,2011-10-17 11:35:00
7:55 AM,41.0,32.0,70,29.42,10.0,West,13.8,26.5,N/A,,Overcast,260,2011-10-17 11:55:00
8:15 AM,41.0,32.0,70,29.43,10.0,West,15.0,23.0,N/A,,Overcast,260,2011-10-17 12:15:00
8:35 AM,41.0,32.0,70,29.43,10.0,West,13.8,20.7,N/A,,Overcast,260,2011-10-17 12:35:00
8:55 AM,39.2,33.8,81,29.44,10.0,West,13.8,21.9,N/A,,Overcast,260,2011-10-17 12:55:00
9:15 AM,39.2,33.8,81,29.45,10.0,West,17.3,23.0,0.01,,Overcast,260,2011-10-17 13:15:00
9:35 AM,39.2,33.8,81,29.45,10.0,West,15.0,24.2,0.01,,Overcast,260,2011-10-17 13:35:00
9:55 AM,39.2,35.6,87,29.46,10.0,West,16.1,21.9,0.01,,Mostly Cloudy,260,2011-10-17 13:55:00
10:15 AM,39.2,33.8,81,29.46,10.0,West,15.0,24.2,N/A,,Overcast,260,2011-10-17 14:15:00
10:35 AM,39.2,35.6,87,29.46,10.0,West,13.8,20.7,N/A,,Mostly Cloudy,260,2011-10-17 14:35:00
10:55 AM,39.2,35.6,87,29.47,10.0,West,15.0,19.6,N/A,,Overcast,260,2011-10-17 14:55:00
11:15 AM,39.2,35.6,87,29.47,5.0,West,12.7,25.3,N/A,,Overcast,260,2011-10-17 15:15:00
11:35 AM,39.2,35.6,87,29.47,9.0,WSW,15.0,23.0,N/A,,Overcast,250,2011-10-17 15:35:00
11:55 AM,41.0,35.6,81,29.48,10.0,West,13.8,25.3,0.01,,Overcast,260,2011-10-17 15:55:00
12:16 PM,41.0,35.6,81,29.48,10.0,West,13.8,21.9,N/A,,Mostly Cloudy,260,2011-10-17 16:16:00
12:55 PM,42.8,37.4,81,29.48,10.0,WSW,11.5,21.9,N/A,,Overcast,250,2011-10-17 16:55:00
1:15 PM,42.8,37.4,81,29.49,10.0,West,16.1,24.2,N/A,,Overcast,260,2011-10-17 17:15:00
1:35 PM,44.6,37.4,76,29.49,10.0,West,16.1,27.6,N/A,,Mostly Cloudy,260,2011-10-17 17:35:00
1:55 PM,44.6,37.4,76,29.49,10.0,West,17.3,27.6,N/A,,Overcast,260,2011-10-17 17:55:00
2:15 PM,44.6,37.4,76,29.49,10.0,West,16.1,25.3,N/A,,Mostly Cloudy,260,2011-10-17 18:15:00
2:35 PM,44.6,35.6,71,29.50,10.0,West,13.8,21.9,N/A,,Mostly Cloudy,260,2011-10-17 18:35:00
2:55 PM,42.8,35.6,76,29.50,10.0,West,16.1,23.0,N/A,,Overcast,270,2011-10-17 18:55:00
3:15 PM,42.8,37.4,81,29.51,8.0,West,13.8,23.0,0.01,,Overcast,270,2011-10-17 19:15:00
3:35 PM,42.8,35.6,76,29.51,10.0,West,12.7,24.2,0.02,,Overcast,270,2011-10-17 19:35:00
3:55 PM,41.0,37.4,87,29.52,8.0,West,16.1,-,0.03,,Overcast,270,2011-10-17 19:55:00
4:15 PM,41.0,37.4,87,29.53,10.0,West,11.5,-,N/A,,Overcast,260,2011-10-17 20:15:00
4:35 PM,42.8,37.4,81,29.54,5.0,West,11.5,-,N/A,,Overcast,270,2011-10-17 20:35:00
4:55 PM,42.8,37.4,81,29.54,10.0,West,11.5,-,N/A,,Overcast,270,2011-10-17 20:55:00
5:15 PM,42.8,37.4,81,29.55,10.0,West,15.0,19.6,N/A,,Overcast,280,2011-10-17 21:15:00
5:35 PM,42.8,37.4,81,29.56,10.0,West,13.8,24.2,0.01,,Mostly Cloudy,270,2011-10-17 21:35:00
5:55 PM,41.0,37.4,87,29.57,10.0,West,11.5,-,0.01,,Overcast,270,2011-10-17 21:55:00
6:15 PM,41.0,37.4,87,29.58,10.0,West,13.8,-,N/A,,Overcast,270,2011-10-17 22:15:00
6:35 PM,41.0,37.4,87,29.58,10.0,West,13.8,18.4,N/A,,Overcast,270,2011-10-17 22:35:00
6:55 PM,41.0,35.6,81,29.59,9.0,West,13.8,17.3,N/A,,Overcast,280,2011-10-17 22:55:00
7:15 PM,41.0,37.4,87,29.59,10.0,West,13.8,19.6,N/A,,Overcast,270,2011-10-17 23:15:00
7:35 PM,41.0,37.4,87,29.60,10.0,West,10.4,-,N/A,,Overcast,270,2011-10-17 23:35:00
7:55 PM,41.0,37.4,87,29.60,10.0,West,9.2,-,N/A,,Overcast,270,2011-10-17 23:55:00
8:15 PM,41.0,37.4,87,29.61,10.0,West,8.1,-,N/A,,Overcast,270,2011-10-18 00:15:00
8:35 PM,41.0,37.4,87,29.61,10.0,West,6.9,-,N/A,,Overcast,260,2011-10-18 00:35:00
8:55 PM,41.0,37.4,87,29.61,9.0,West,5.8,-,N/A,,Overcast,270,2011-10-18 00:55:00
9:15 PM,41.0,37.4,87,29.62,10.0,West,8.1,-,N/A,,Overcast,260,2011-10-18 01:15:00
9:35 PM,41.0,37.4,87,29.62,10.0,West,8.1,-,N/A,,Overcast,260,2011-10-18 01:35:00
9:55 PM,41.0,37.4,87,29.63,10.0,WSW,5.8,-,N/A,,Overcast,250,2011-10-18 01:55:00
10:15 PM,41.0,37.4,87,29.63,8.0,WSW,8.1,-,N/A,,Overcast,250,2011-10-18 02:15:00
10:35 PM,41.0,37.4,87,29.63,10.0,West,9.2,-,N/A,,Overcast,260,2011-10-18 02:35:00
10:55 PM,41.0,37.4,87,29.63,10.0,West,6.9,-,N/A,,Overcast,260,2011-10-18 02:55:00
11:15 PM,41.0,37.4,87,29.64,9.0,West,10.4,-,N/A,,Overcast,260,2011-10-18 03:15:00
11:35 PM,41.0,37.4,87,29.63,10.0,West,6.9,-,N/A,,Overcast,270,2011-10-18 03:35:00
11:55 PM,41.0,37.4,87,29.63,10.0,West,9.2,-,N/A,,Overcast,270,2011-10-18 03:55:00